Weather in Zarafshan

Uzbekistan     41°34′07″N   64°12′09″E
temp.,
°C
wind,
m/s
gust,
m/s
humid.,
%
clouds,
%
prec.,
mm/h
press.,
hPa
HPBL,
m
19 september, sun
sun1923:00+23nne47200 0.0 1011142
02:00+21nne45180 0.0 101067
05:00+19nne45200 0.0 101266
08:00+19nne58190 0.0 1015288
11:00+23nne67170 0.0 1015645
14:00+26nne76135 0.0 10151166
17:00+25n771366 0.0 10151223
20:00+21nne8112022 0.0 1017510
20 september, mon
mon2023:00+18ne712240 0.0 1017371
02:00+15ne611330 0.0 1017279
05:00+14ne59270 0.0 1017216
08:00+14ne59180 0.0 1018280
11:00+20ne67130 0.0 1017504
14:00+23nne66110 0.0 1016900
17:00+24nne7790 0.0 10151043
20:00+20ne611100 0.0 1015282
21 september, tue
tue2123:00+16ne610140 0.0 1015213
02:00+15ne58170 0.0 1015135
05:00+13ne47200 0.0 101599
08:00+15ne48190 0.0 1016208
11:00+20ne56130 0.0 1016531
14:00+24nne6680 0.0 10151065
17:00+24nne8870 0.0 10141211
20:00+19nne611110 0.0 1015259
22 september, wed
wed2223:00+16nne510160 0.0 1015222
02:00+15ne47190 0.0 1014109
05:00+13nne46210 0.0 101474
08:00+15ne58190 0.0 1015201
11:00+20nne44130 0.0 1015531
14:00+24ne5493 0.0 1013983
17:00+24nne6685 0.0 10131101
20:00+20ne58130 0.0 1014147
23 september, thu
thu2323:00+17ne5101612 0.0 1015180
02:00+15ne46210 0.0 101494
05:00+15ne44225 0.0 101437
08:00+16ne47205 0.0 1015175
11:00+22nne551420 0.0 1015530
14:00+25ne541199 0.0 10141083
17:00+25ne66110 0.0 10131256
20:00+21ne58150 0.0 1015114